Location: Gull Harbor
(47.1000°N, 122.9000°W)
Time: 20:06:25
(UTC-07:00)

STARLINK-2758 - Pass Details

Date: 01 August 2021
Orbit: 546 x 548 km, 53.1° (Epoch: 24 September)

Event Time Altitude Azimuth Distance (km) Brightness Sun altitude
Rises 21:03:00 0° 292° (WNW) 2,726 9.6 -3.7°
Reaches altitude 10° 21:05:36 10° 278° (W) 1,827 7.6 -4.1°
Maximum altitude 21:08:50 22° 226° (SW) 1,219 5.6 -4.5°
Drops below altitude 10° 21:12:04 10° 175° (S) 1,816 5.9 -5.0°
Enters shadow 21:14:28 - 161° (SSE) 2,642 6.6 -5.3°
